Torna al catalogo

CZ-4B DEB

AttivoSSO
NORAD 38326·DEBRIS·🇨🇳 China

Lanciato Oct 6, 2010 da Taiyuan Satellite Launch Center

Loading…

Prossimi Passaggi (prossime 24 ore)

TLE

AggiornatoSource: Space-Track

Epoca: Sep 14, 2026, 14:49 UTC

1 38326U 10051H   26257.61766594  .00004441  00000-0  46013-3 0  9995
2 38326  97.6852 312.6212 0106480 307.7616  51.3990 14.86386110835255

Traccia CZ-4B DEB in tempo reale con AllMySat

Download on the App Store